Regional Weather Roundup
Issued by NWS New Orleans/Baton Rouge, LA

Home | Current Version | Previous Version | Text Only | Print | Product List | Glossary On
Versions: 1 2 3 4 5 6 7 8 9 10 11 12 13 14 15 16 17 18 19 20 21 22 23 24 25 26 27 28 29 30 31 32 33 34 35 36 37 38 39 40 41 42 43 44 45 46 47 48 49 50
000
ASUS44 KLIX 200301
RWRLIX
NEW ORLEANS REGIONAL WEATHER ROUNDUP
NATIONAL WEATHER SERVICE NEW ORLEANS LA
1000 PM CDT FRI SEP 19 2014

NOTE: "FAIR" INDICATES FEW OR NO CLOUDS BELOW 12,000 FEET WITH NO
      SIGNIFICANT WEATHER AND/OR OBSTRUCTIONS TO VISIBILITY.
      SKY/WX - SKY CONDITION AND SIGNIFICANT WEATHER.
      TMP - AIR TEMPERATURE.     DP    - DEWPOINT TEMPERATURE.
      RH  - RELATIVE HUMIDITY.   PRES  - PRESSURE.
      HI  - HEAT INDEX.          WCI   - WIND CHILL INDEX.

*  THESE STATIONS ARE NOT NWS OR FAA STATIONS AND ARE NOT UNDER
   NWS QUALITY CONTROL.

LAZ038-040-048-061>063-065>067-069-200400-
SOUTHEAST LOUISIANA

CITY           SKY/WX    TMP DP  RH WIND       PRES   REMARKS
N.O. AUDUBON     N/A     78  70  74 MISG        N/A
N.O. INTL ARPT CLEAR     79  68  69 E6        29.96R
N.O. LAKEFRONT CLEAR     80  68  66 E10       29.97R
N.O. DOWNTOWN*   N/A     81  64  57 E5        29.97R
SLIDELL        CLEAR     73  70  90 CALM      29.97R
BATON ROUGE    CLEAR     74  72  93 CALM      29.97R
BOOTHVILLE     PTCLDY    81  72  74 E13       29.95R
BELLE CHASSE   MOCLDY    75  67  76 E8        29.96R
BOGALUSA*        N/A     72  69  89 CALM      30.00S FOG
GALLIANO*      NOT AVBL
NEW ROADS*       N/A     75  71  88 CALM      29.97S
GONZALES*        N/A     72  72 100 CALM      29.96R
HAMMOND*       NOT AVBL
HOUMA*         CLEAR     74  67  80 CALM      29.96R
PORT FOURCHON* MOCLDY    81  72  74 E10G22    29.97R

$$

MSZ070-080>082-200400-
SOUTHERN MISSISSIPPI

CITY           SKY/WX    TMP DP  RH WIND       PRES   REMARKS
MCCOMB         CLEAR     74  70  87 CALM      30.00R
GULFPORT       CLEAR     77  69  76 NE5       29.98R
BILOXI         CLEAR     76  67  75 NE6       29.98R
PASCAGOULA     CLEAR     70  68  93 CALM      29.98R

$$

COASTAL OBSERVATIONS
LAKE AND NEARSHORE STATIONS

STATION/POSITION TIME  TEMP    WIND        PRES    WAVE
                       AIR SEA DIR/SP/G            HT/PER
                 (UTC) (F)     (DEG/KT/KT) (MB)    (FT/S)
PASCAGOULA       0200   81     120/ 13/ 17 1014.4
WAVELAND YACHT   0200   82      90/  8/ 10 1014.3
GRAND ISLE       0200   81 83   80/ 13/ 17 1014.2
SOUTHWEST PASS   0200   82 90   90/ 22/ 29 1013.6
NEW CANAL        0200   79 82   90/  1/  4 1015.0
SHELL BEACH      0200   80 79   80/ 10/ 12 1014.2

OFFSHORE STATIONS

STATION/POSITION TIME  TEMP    WIND        PRES    WAVE
                       AIR SEA DIR/SP/G            HT/PER
                 (UTC) (F)     (DEG/KT/KT) (MB)    (FT/S)
64 S DAUPHIN ISL 0208   81 84   90/ 19/ 23 1014.3    7/ 8

$$



USA.gov is the U.S. government's official web portal to all federal, state and local government web resources and services.